STARLINK-35133 (65535 NORAD) Tracking and Keplerian Element Data

This shows tracking and keplerian element data for the satellite.

Feedback or suggestion? Click here.




ElementValue
Catalog65535
NameSTARLINK-35133
Epoch Orbit1716
Epoch Day354.14017379
Epoch Year2025
RAAN61.4253
Inclination97.6043
Eccentricity6.79E-05
Argument of Perigee100.593
Mean Anonmoly259.5373
Mean Motion15.0564812
Decay Rate2.255E-05
L11 65535U 25200R 25354.14017379 .00002255 00000+0 16044-3 0 9995
L22 65535 97.6043 61.4253 0000679 100.5930 259.5373 15.05648120 17167



Live tracking and technical data element details for STARLINK-35133 (NORAD 65535). STARLINK-35133 can be tracked NOW for your location showing map with azimuth and elevation plus other details from your city location.







IsCatalogInMostPopularTable: catalog: 65535, numindb: 3
Update: records affected: 1



GetName: 65535 STARLINK-35133

Hit Count: updated at: Sun, 08 Feb 2026 08:22:03 GMT